• Processing (Info)

  • MPEC 2005-X35 : 2005 XY4

    The following Minor Planet Electronic Circular may be linked-to from your own Web pages, but must not otherwise be redistributed electronically.

    A form allowing access to any MPEC is at the bottom of this page.


    Read MPEC 2005-X34 Read MPEC 2005-X36


    M.P.E.C. 2005-X35                                Issued 2005 Dec. 7, 00:04 UT
    
         The Minor Planet Electronic Circulars contain information on unusual
             minor planets and routine data on comets.  They are published
       on behalf of Commission 20 of the International Astronomical Union by the
              Minor Planet Center, Smithsonian Astrophysical Observatory,
                              Cambridge, MA 02138, U.S.A.
    
                      Supported in part by the Brinson Foundation
                      Supported in part by the TABASGO Foundation
                 Prepared using the Tamkin Foundation Computer Network
    
                                  MPC@CFA.HARVARD.EDU
              URL http://cfa-www.harvard.edu/iau/mpc.html  ISSN 1523-6714
    
                                       2005 XY4
    
    Observations:
         K05X04Y* C2005 12 06.27419 03 26 36.99 -09 33 28.3          19.3 V EX035703
         K05X04Y  C2005 12 06.28127 03 26 36.56 -09 31 48.8          19.1 V EX035703
         K05X04Y  C2005 12 06.28834 03 26 35.95 -09 30 11.1          19.1 V EX035703
         K05X04Y  C2005 12 06.29548 03 26 35.37 -09 28 32.7          19.1 V EX035703
         K05X04Y  C2005 12 06.32089 03 26 33.51 -09 22 42.8          19.3 V EX035703
         K05X04Y  C2005 12 06.32814 03 26 33.03 -09 21 03.2          18.9 V EX035703
         K05X04Y  C2005 12 06.34278 03 26 31.90 -09 17 42.4          19.6 V EX035703
         K05X04Y  C2005 12 06.81789 03 26 22.65 -07 36 35.3          19.3 R EX035143
         K05X04Y  C2005 12 06.82498 03 26 22.00 -07 35 10.0          20.3 R EX035143
         K05X04Y  C2005 12 06.83156 03 26 21.64 -07 33 50.7          19.3 R EX035143
         K05X04Y  C2005 12 06.92369 03 26 16.89 -07 15 44.1                 EX035J95
         K05X04Y  C2005 12 06.92801 03 26 16.63 -07 14 53.7                 EX035J95
         K05X04Y  C2005 12 06.93257 03 26 16.40 -07 13 59.9          19.3 R EX035J95
    
    Observer details:
    143 Gnosca.  Observer S. Sposetti.  0.40-m f/4 reflector + CCD.
    703 Catalina Sky Survey.  Observer E. C. Beshore.  Measurers E. C. Beshore,
        E. J. Christensen, G. J. Garradd, A. D. Grauer, R. E. Hill, R. A. Kowalski,
        S. M. Larson, R. H. McNaught.  0.68-m Schmidt + CCD.
    J95 Great Shefford.  Observer P. Birtwhistle.  0.40-m f/6.0 Schmidt-Cassegrain
        + CCD.
    
    Orbital elements:
    2005 XY4
    Epoch 2006 Mar. 6.0 TT = JDT 2453800.5                  MPC
    M 134.99660              (2000.0)            P               Q
    n   0.90140126     Peri.  143.39734     +0.59401628     +0.80439359
    a   1.0613467      Node   163.03824     -0.74579324     +0.55521717
    e   0.6029793      Incl.    1.92081     -0.30155780     +0.21138792
    P   1.09           H   23.3           G   0.15           U   9
    Residuals in seconds of arc
    051206 703  0.9-  0.7-    051206 703  0.9+  0.4-    051206 J95  0.1-  0.1-
    051206 703  0.9+  0.6+    051206 703  0.5-  0.2-    051206 J95  0.2-  0.4-
    051206 703  0.0   0.3+    051206 143 (3.6+  0.4-)   051206 J95  0.3+  0.0
    051206 703  0.4-  0.1-    051206 143  0.1+  0.2-
    051206 703  0.2+  0.4-    051206 143  0.4+  0.3+
    
    Ephemeris:
    2005 XY4                 a,e,i = 1.06, 0.60, 2                   q = 0.4214
    Date    TT    R. A. (2000) Decl.     Delta      r     Elong.  Phase     V
    2005 12 06    03 26.82   -10 38.1    0.0734   1.044   141.1    36.4    19.2
    2005 12 07    03 26.24   -06 59.6    0.0839   1.054   143.4    33.9    19.4
    2005 12 08    03 25.84   -04 09.1    0.0946   1.064   144.8    32.2    19.7
    2005 12 09    03 25.58   -01 52.7    0.106    1.074   145.7    31.1    19.9
    2005 12 10    03 25.43   -00 01.3    0.117    1.084   146.2    30.4    20.1
    2005 12 11    03 25.36   +01 31.5    0.128    1.094   146.4    29.9    20.3
    2005 12 12    03 25.36   +02 49.9    0.139    1.103   146.4    29.6    20.5
    2005 12 13    03 25.41   +03 57.1    0.151    1.113   146.2    29.5    20.7
    2005 12 14    03 25.52   +04 55.5    0.162    1.122   145.8    29.5    20.9
    2005 12 15    03 25.67   +05 46.7    0.174    1.132   145.4    29.6    21.1
    2005 12 16    03 25.87   +06 32.0    0.186    1.141   144.9    29.7    21.2
    2005 12 17    03 26.11   +07 12.5    0.198    1.150   144.4    29.9    21.4
    2005 12 18    03 26.38   +07 49.0    0.209    1.160   143.8    30.1    21.5
    2005 12 19    03 26.68   +08 22.1    0.221    1.169   143.1    30.3    21.7
    2005 12 20    03 27.02   +08 52.2    0.233    1.178   142.5    30.6    21.8
    2005 12 21    03 27.39   +09 19.9    0.246    1.186   141.8    30.9    21.9
    2005 12 22    03 27.79   +09 45.5    0.258    1.195   141.1    31.1    22.1
    2005 12 23    03 28.22   +10 09.1    0.270    1.204   140.3    31.4    22.2
    2005 12 24    03 28.68   +10 31.2    0.282    1.213   139.6    31.7    22.3
    2005 12 25    03 29.16   +10 51.8    0.295    1.221   138.8    32.0    22.4
    2005 12 26    03 29.68   +11 11.2    0.307    1.229   138.1    32.3    22.6
    
    Timothy B. Spahr             (C) Copyright 2005 MPC           M.P.E.C. 2005-X35
    

    Read MPEC 2005-X34 Read MPEC 2005-X36


    MPEC number:

    Enter an MPEC number in one of the following forms:

    • 1997-B01 (the full form)
    • J97B01 (the packed version of the full form)
    • B01 (the abbreviated form)